,

(GMT )
Al Udeid

Weather History for KQIR - November, 2012

Change the Weather History Date:

Tuesday, November 20, 2012

  Actual Average Record
Temperature  
Mean Temperature 74 °F -  
Max Temperature 80 °F - - ()
Min Temperature 69 °F - - ()
Cooling Degree Days 10    
Growing Degree Days 24 (Base 50)    
Moisture  
Dew Point 64 °F    
Average Humidity 69    
Maximum Humidity 77    
Minimum Humidity 61    
Precipitation  
Precipitation 0.00 in - - ()
Sea Level Pressure  
Sea Level Pressure 29.97 in    
Wind  
Wind Speed 9 mph ()    
Max Wind Speed 17 mph    
Max Gust Speed 24 mph    
Visibility 6.2 miles    
Events Thunderstorm    
Averages and records for this station are not official NWS values.
T = Trace of Precipitation, MM = Missing Value Source: Averaged Metar Reports

Daily Weather History Graph

Daily Weather History Graph

Search for Another Location

Airport or City:

Trip Planner

Search our weather history database for the weather conditions in past years. The results will help you decide how hot, cold, wet, or windy it might be!

Date:

Astronomy

Nov. 20, 2012 Rise Set
Actual Time 5:55 AM +03 4:45 PM +03
Civil Twilight 5:30 AM +03 5:09 PM +03
Nautical Twilight 5:03 AM +03 5:37 PM +03
Astronomical Twilight 4:35 AM +03 6:04 PM +03
Moon 11:35 AM +03 (11/20) 11:30 PM +03 (11/20)
Length of Visible Light 11h 38m
Length of Day
10h 49m
Waxing Crescent, 47% of the Moon is Illuminated
Nov 20
Waxing Crescent
Nov 20
First Quarter
Nov 28
Full
Dec 6
Last Quarter
Dec 13
New

Hourly Weather History & Observations

Time (+03) Temp. Heat Index Dew Point Humidity Pressure Visibility Wind Dir Wind Speed Gust Speed Precip Events Conditions
12:55 AM 74.7 °F - 65.7 °F 73% 29.93 in 6.2 mi ESE 8.1 mph - N/A   Mostly Cloudy
1:55 AM 74.8 °F - 65.5 °F 73% 29.91 in 6.2 mi East 6.9 mph - N/A   Clear
2:55 AM 74.1 °F - 66.2 °F 76% 29.91 in 6.2 mi East 8.1 mph - N/A   Mostly Cloudy
3:55 AM 73.6 °F - 65.8 °F 77% 29.92 in 6.2 mi NE 4.6 mph - N/A   Mostly Cloudy
4:55 AM 74.1 °F - 65.7 °F 75% 29.94 in 6.2 mi North 6.9 mph - N/A   Partly Cloudy
5:55 AM 73.2 °F - 60.6 °F 65% 29.96 in 6.2 mi North 12.7 mph - N/A   Clear
6:55 AM 72.0 °F - 63.1 °F 74% 29.99 in 6.2 mi NNE 9.2 mph - N/A   Clear
7:55 AM 75.9 °F - 64.2 °F 67% 30.01 in 6.2 mi North 9.2 mph - N/A   Partly Cloudy
8:55 AM 76.6 °F - 64.4 °F 66% 30.02 in 6.2 mi North 12.7 mph - N/A   Clear
9:55 AM 79.0 °F - 65.8 °F 64% 29.99 in 6.2 mi NE 10.4 mph - N/A   Partly Cloudy
10:37 AM 80.6 °F 83.2 °F 68.0 °F 65% 29.97 in 5.6 mi North 15.0 mph 19.6 mph N/A Thunderstorm Widespread Dust
10:54 AM 77.0 °F - 64.4 °F 65% 29.97 in 6.2 mi North 16.1 mph 24.2 mph N/A   Mostly Cloudy
10:55 AM 77.0 °F - 65.1 °F 67% 29.98 in 6.2 mi NNE 16.1 mph - N/A   Mostly Cloudy
11:55 AM 77.5 °F - 66.4 °F 68% 29.96 in 6.2 mi North 8.1 mph - 0.00 in   Mostly Cloudy
12:55 PM 80.2 °F 82.2 °F 65.8 °F 61% 29.94 in 6.2 mi NNE 12.7 mph - N/A   Mostly Cloudy
1:55 PM 79.2 °F - 65.3 °F 62% 29.93 in 6.2 mi North 10.4 mph - N/A   Partly Cloudy
2:55 PM 79.2 °F - 64.9 °F 62% 29.93 in 6.2 mi NNE 10.4 mph - N/A   Partly Cloudy
3:55 PM 78.1 °F - 64.6 °F 63% 29.94 in 6.2 mi NNE 12.7 mph - N/A   Partly Cloudy
4:55 PM 77.2 °F - 65.1 °F 66% 29.95 in 6.2 mi North 17.3 mph - N/A   Scattered Clouds
5:55 PM 73.6 °F - 63.0 °F 69% 29.97 in 6.2 mi NNW 16.1 mph - N/A   Clear
6:55 PM 71.8 °F - 62.1 °F 71% 29.99 in 6.2 mi NNW 16.1 mph - N/A   Clear
7:55 PM 70.5 °F - 61.9 °F 74% 30.00 in 6.2 mi NNW 15.0 mph - N/A   Clear
8:55 PM 69.6 °F - 61.7 °F 76% 30.01 in 6.2 mi NNW 12.7 mph - N/A   Clear
9:55 PM 69.3 °F - 60.8 °F 74% 30.01 in 6.2 mi NNW 12.7 mph - N/A   Clear
10:55 PM 69.3 °F - 61.2 °F 75% 30.01 in 6.2 mi NW 11.5 mph - N/A   Clear
11:55 PM 69.3 °F - 60.8 °F 74% 30.00 in 6.2 mi NW 12.7 mph - N/A   Partly Cloudy